Regional Weather Roundup
Issued by NWS Upton, NY

Current Version | Previous Version | Text Only | Print | Product List | Glossary Off
Versions: 1 2 3 4 5 6 7 8 9 10 11 12 13 14 15 16 17 18 19 20 21 22 23 24 25 26 27 28 29 30 31 32 33 34 35 36 37 38 39 40 41 42 43 44 45 46 47 48 49 50
000 ASUS41 KOKX 302304 RWROKX REGIONAL WEATHER ROUNDUP NATIONAL WEATHER SERVICE NEW YORK NY 700 PM EDT THU JUL 30 2015 NOTE: "FAIR" INDICATES FEW OR NO CLOUDS BELOW 12,000 FEET WITH NO SIGNIFICANT WEATHER AND/OR OBSTRUCTIONS TO VISIBILITY. NYZ071-072-176-178-NJZ106-104-310000- NEW YORK CITY METRO AREA CITY SKY/WX TMP DP RH WIND PRES REMARKS CENTRAL PARK PTSUNNY 78 74 87 SW6 29.84S FOG LAGUARDIA APRT CLOUDY 80 73 79 SW9 29.81R KENNEDY INTL CLOUDY 77 72 84 S13 29.83R NEWARK/LIBERTY CLOUDY 80 73 79 SW9 29.81R BRNX BOT. GARD N/A 79 72 78 E3 29.82F TETERBORO PTSUNNY 87 72 60 S12 29.80R HX 93 $$ NYZ177-179-078>081-310000- LONG ISLAND NEW YORK CITY SKY/WX TMP DP RH WIND PRES REMARKS FARMINGDALE CLOUDY 77 74 90 SW9 29.83S ISLIP RAIN 76 73 91 S7 29.81F FOG SHIRLEY HVY RAIN 76 73 91 S5 29.84R FOG WESTHAMPTON LGT RAIN 77 75 93 SW13G21 29.86R MONTAUK POINT N/A 76 72 87 S9 29.84S $$ NYZ052-065-067-310000- HUDSON VALLEY CITY SKY/WX TMP DP RH WIND PRES REMARKS WHITE PLAINS PTSUNNY 76 74 93 S7 29.82R FOG NEWBURGH MOSUNNY 81 73 78 W7 29.81R MONTGOMERY MOSUNNY 80 74 81 S8 29.79R POUGHKEEPSIE MOSUNNY 81 72 74 S3 29.78R ALBANY MOSUNNY 84 60 44 W9 29.78R $$ NJZ001-105-106-008-010-013-015-019>022-104-310000- NEW JERSEY CITY SKY/WX TMP DP RH WIND PRES REMARKS NEWARK/LIBERTY CLOUDY 80 73 79 SW9 29.81R TETERBORO PTSUNNY 87 72 60 S12 29.80R HX 93 CALDWELL PTSUNNY 79 72 79 SW6 29.81R MORRISTOWN NOT AVBL SOMERVILLE PTSUNNY 79 73 82 S5 29.80S SUSSEX PTSUNNY 79 73 82 SW3 29.81R ANDOVER N/A 79 74 84 SW5 29.83R TRENTON PTSUNNY 77 73 87 SW6 29.82S MILLVILLE CLOUDY 77 74 90 CALM 29.84S ATLANTIC CITY CLOUDY 77 74 90 NW6 29.85R WRIGHTSTOWN CLOUDY 75 75 99 SW3 29.81R TOMS RIVER N/A 75 73 94 SW3 29.85R BELMAR CLOUDY 75 70 83 S6 29.84R THUNDER $$ PAZ047>061-062-071-310000- EASTERN PENNSYLVANIA CITY SKY/WX TMP DP RH WIND PRES REMARKS PHILADELPHIA CLOUDY 80 74 81 SW8 29.84R ALLENTOWN SUNNY 82 74 76 SW10 29.82R SCRANTON MOSUNNY 85 62 46 NW10 29.84R $$ CTZ002-004>006-009-010-012-RIZ004-006-007-MAZ004-011-015-310000- SOUTHERN NEW ENGLAND IN CT CITY SKY/WX TMP DP RH WIND PRES REMARKS BRADLEY INTL RAIN 75 73 93 S15 29.79R FOG HARTFORD CLOUDY 76 74 93 S6 29.80R DANBURY CLOUDY 76 32 20 S7 29.83R WTRBRY/OXFORD CLOUDY 75 68 78 S6 29.85S BRIDGEPORT CLOUDY 76 73 91 S9 29.81S MERIDEN LGT RAIN 75 72 90 S7 29.81S NEW HAVEN LGT RAIN 74 72 93 S6 29.82F CHESTER HVY RAIN 73 73 100 SW7 29.85R GROTON RAIN 75 72 90 W8 29.84R FOG WILLIMANTIC LGT RAIN 76 72 87 S9 29.82R IN RI CITY SKY/WX TMP DP RH WIND PRES REMARKS PROVIDENCE LGT RAIN 77 72 84 SW12 29.83R BLOCK ISLAND N/A 75 72 88 SW16G22 29.84S WESTERLY LGT RAIN 76 73 91 SW8 29.84R IN MA CITY SKY/WX TMP DP RH WIND PRES REMARKS BOSTON LGT RAIN 80 73 79 SW15 29.78R WORCESTER LGT RAIN 72 68 87 SW12 29.82F WESTFIELD CLOUDY 76 73 91 S8 29.79R PROVINCETOWN MOCLDY 75 66 73 SW21 29.82R NANTUCKET PTCLDY 74 71 91 S10 29.86S $$ ANZ330-335-338-340-345-350-353-355-310000- COASTAL MARINE OBSERVATIONS STATION/POSITION TIME SKY/WX TEMP WIND PRES VSBY WAVE AIR SEA DIR/SP/G HT/PER (UTC) (F) (DEG/KT/KT) (MB) (MI) (FT/S) NY HARB ENTRANCE 2150 75 76 250/ 16/ 19 1009.8 5/ 5 4S FIRE IS NOT AVBL 20S FIRE ISLAND 2150 77 76 200/ 17/ 21 1009.2 5/ 6 GREAT SOUTH BAY 2215 77 81 300/ 10/ 19 N/A 23SW MTP 2250 77 75 220/ 17/ 21 1009.7 4/ 6 HUDSON CANYON NOT AVBL KINGS POINT 2200 75 74 180/ 6/ 8 1008.8 EXECUTION ROCKS 2200 75 160/ 4/ 6 N/A CENTRAL LI SOUND NOT AVBL EASTERN LI SOUND 2200 74 69 220/ 14/ 17 N/A ROBBINS REEF 2200 78 220/ 5/ 7 1008.3 $$ >>>>>>>>>>>>>>>>>>>>>>>>>>>> KEY <<<<<<<<<<<<<<<<<<<<<<<<<<< > < > SKY/WX - SKY CONDITION/PRESENT WEATHER < > TMP - TEMPERATURE IN FAHRENHEIT < > DP - DEWPOINT IN FAHRENHEIT < > RH - RELATIVE HUMIDITY IN PERCENT < > WIND - DIRECTION AND SPEED IN MPH < > PRES - MEAN SEA LEVEL PRESSURE IN INCHES OF HG < > WCI - WIND CHILL INDEX < > VSB - VISIBILITY IN MILES < > HX - HEAT INDEX < > TC - TEMPERATURE IN CELSIUS < > VRB - VARIABLE WIND DIRECTION < > < >>>>>>>>>>>>>>>>>>>>>>>>>>>> KEY <<<<<<<<<<<<<<<<<<<<<<<<<<<

USA.gov is the U.S. government's official web portal to all federal, state and local government web resources and services.